Regional Weather Roundup
Issued by NWS

Home | Current Version | Previous Version | Graphics & Text | Print | Product List | Glossary On
Versions: 1 2 3 4 5 6 7 8 9 10 11 12 13 14 15 16 17 18 19 20 21 22 23 24 25 26 27 28 29 30 31 32 33 34 35 36 37 38 39 40 41 42 43 44 45 46 47 48 49 50
000
ASUS43 KDMX 212201
RWRIA

WEATHER ROUNDUP FOR IOWA
NATIONAL WEATHER SERVICE DES MOINES IA
500 PM CDT THU SEP 21 2017

NOTE: "FAIR" INDICATES FEW OR NO CLOUDS BELOW 12,000 FEET WITH NO
SIGNIFICANT WEATHER AND/OR OBSTRUCTIONS TO VISIBILITY.

* - THESE STATIONS ARE NOT NWS STATIONS...THUS NOT UNDER NWS
QUALITY CONTROL.  THEY ALSO DO NOT REPORT WEATHER SUCH
AS PRECIPITATION OR FOG.

IAZ001>003-012>014-020>022-031>034-043>046-212300-
   NORTHWEST IOWA

CITY           SKY/WX    TMP DP  RH WIND       PRES   REMARKS
CARROLL *      SUNNY     88  72  58 S20G33    29.78S HX  94
CHEROKEE *     SUNNY     84  74  70 S21G26    29.74F HX  91
DENISON *      SUNNY     86  73  66 S15G28    29.77F HX  93
LE MARS *      SUNNY     88  73  62 S18G32    29.70S HX  96
ORANGE CITY *  SUNNY     88  73  62 S12G24    29.72F HX  96
SHELDON *      MOSUNNY   84  72  65 SE18G29   29.71F HX  89
SIOUX CITY     SUNNY     89  73  59 S20G29    29.69F HX  97
SPENCER        MOSUNNY   86  70  58 S17G26    29.75F HX  90
STORM LAKE *   SUNNY     84  72  65 S18G29    29.76F HX  89
$$

IAZ055>058-069>071-079>083-090>094-212300-
   SOUTHWEST IOWA

CITY           SKY/WX    TMP DP  RH WIND       PRES   REMARKS
ATLANTIC *     SUNNY     90  73  58 S20G29    29.77S HX  98
AUDUBON *      SUNNY     88  75  66 S18G30    29.80S HX  97
CLARINDA *     MOSUNNY   91  73  55 S14G32    29.80S HX 100
COUNCIL BLFS * MOSUNNY   91  73  55 S17G30    29.74F HX 100
CRESTON *      MOSUNNY   90  72  55 S21G31    29.84F HX  96
HARLAN  *      SUNNY     90  73  58 S14G24    29.79F HX  98
LAMONI         SUNNY     90  70  51 S18G26    29.84F HX  95
RED OAK *      MOSUNNY   91  72  52 S21G29    29.77S HX  98
SHENANDOAH *   SUNNY     91  73  55 S17G29    29.76F HX 100
$$

IAZ047>049-059>061-072>074-084-212300-
   CENTRAL IOWA

CITY           SKY/WX    TMP DP  RH WIND       PRES   REMARKS
AMES           SUNNY     87  73  62 S15G25    29.82F HX  94
ANKENY *       SUNNY     88  72  58 S17G26    29.83S HX  94
BOONE *        MOSUNNY   88  72  58 S14G31    29.81F HX  94
CHARITON *     SUNNY     88  72  58 S21G28    29.85F HX  94
DES MOINES     MOSUNNY   89  71  55 S18G30    29.81F HX  95
GRINNELL*      SUNNY     88  69  53 S14G22    29.88S HX  92
KNOXVILLE *    SUNNY     88  70  55 S18G25    29.84S HX  92
MARSHALLTOWN   SUNNY     89  71  55 S16G25    29.83F HX  95
NEWTON *       SUNNY     88  70  55 S16G26    29.85S HX  92
PELLA *        SUNNY     89  68  50 S10G23    29.87S HX  93
PERRY *          N/A     89  72  57 S17G25    29.80F HX  96
$$

IAZ004>006-015-016-023>025-035-036-212300-
   NORTH CENTRAL IOWA

CITY           SKY/WX    TMP DP  RH WIND       PRES   REMARKS
ALGONA *       SUNNY     88  70  55 S21G31    29.78F HX  92
CLARION *      MOSUNNY   90  72  55 S18G25    29.81F HX  96
ESTHERVILLE    MOSUNNY   85  70  60 S18G25    29.77F HX  89
FORT DODGE *   MOSUNNY   88  72  58 S17       29.80F HX  94
MASON CITY     MOSUNNY   89  67  47 S24G30    29.83F HX  92
FOREST CITY *    N/A     88  68  51 S15G23    29.81F HX  91
WEBSTER CITY * SUNNY     88  70  55 S18G25    29.79S HX  92
IOWA FALLS *     N/A     89  70  53 S21       29.84F HX  95
$$

IAZ007>011-017>019-026>030-037>042-050>054-066-212300-
   NORTHEAST IOWA

CITY           SKY/WX    TMP DP  RH WIND       PRES   REMARKS
CEDAR RAPIDS   SUNNY     87  67  51 S14G22    29.91R HX  90
CHARLES CITY * SUNNY     90  68  48 S15       29.85F HX  93
CLINTON *      CLOUDY   N/A N/A N/A S7        29.96F
DECORAH *      SUNNY     86  66  51 SE12G21   29.88S HX  88
DUBUQUE        MOSUNNY   82  65  56 SE16G22   29.95F HX  84
MONTICELLO *   SUNNY     86  64  48 SE15G22   29.92F HX  87
OELWEIN *      SUNNY     91  68  46 S18G24    29.88F HX  95
WATERLOO       SUNNY     90  67  46 S22G28    29.84F HX  93
$$

IAZ064-065-067-068-078-212300-
   EAST CENTRAL IOWA

CITY           SKY/WX    TMP DP  RH WIND       PRES   REMARKS
DAVENPORT      PTSUNNY   83  67  58 SE7       29.97F HX  85
IOWA CITY      SUNNY     89  68  49 SE15G22   29.92F HX  93
MUSCATINE *    CLOUDY    86  66  51 SE15      29.93F HX  88
QUAD CITIES    CLOUDY    85  69  58 S3        29.95S HX  89
$$

IAZ062-063-075>077-085>089-095>099-212300-
   SOUTHEAST IOWA

CITY           SKY/WX    TMP DP  RH WIND       PRES   REMARKS
BURLINGTON     PTSUNNY   85  71  63 SE14G21   29.94F HX  90
FAIRFIELD *    SUNNY     86  68  54 S15G23    29.90F HX  89
FORT MADISON * CLOUDY    88  72  58 S9G17     29.94F HX  94
KEOKUK *       MOSUNNY   88  72  58 SE15G23   29.92F HX  94
OSKALOOSA *      N/A     88  70  54 S16       29.89S HX  92
OTTUMWA        SUNNY     88  71  57 SE16G22   29.88F HX  94
WASHINGTON *   SUNNY     86  70  58 S10G22    29.93S HX  90
$$

ABBREVIATIONS USED IN REMARKS
   TC - TEMPERATURES IN CELSIUS
  WCI - WIND CHILL INDEX
   HX - HEAT INDEX
  VSB - VISIBILITY
$$





USA.gov is the U.S. government's official web portal to all federal, state and local government web resources and services.